TimeEST,TemperatureF,Dew PointF,Humidity,Sea Level PressureIn,VisibilityMPH,Wind Direction,Wind SpeedMPH,Gust SpeedMPH,PrecipitationIn,Events,Conditions,WindDirDegrees,DateUTC
12:55 AM,42.8,36.9,80,30.35,10.0,NE,5.8,-,N/A,,Clear,40,2012-11-17 05:55:00
1:55 AM,42.1,35.8,78,30.36,10.0,NNE,4.6,-,N/A,,Clear,30,2012-11-17 06:55:00
2:55 AM,41.2,35.4,80,30.37,10.0,NNE,5.8,-,N/A,,Clear,20,2012-11-17 07:55:00
3:55 AM,40.6,34.7,79,30.37,10.0,NNE,4.6,-,N/A,,Clear,30,2012-11-17 08:55:00
4:55 AM,40.5,34.7,80,30.36,10.0,NNE,8.1,-,N/A,,Clear,20,2012-11-17 09:55:00
5:55 AM,39.9,34.2,80,30.37,10.0,NNE,6.9,-,N/A,,Clear,20,2012-11-17 10:55:00
6:55 AM,40.1,33.4,77,30.38,10.0,North,8.1,-,N/A,,Clear,10,2012-11-17 11:55:00
7:55 AM,41.2,32.7,72,30.40,10.0,NNE,11.5,-,N/A,,Clear,30,2012-11-17 12:55:00
8:55 AM,44.8,32.2,61,30.43,10.0,NE,10.4,18.4,N/A,,Scattered Clouds,40,2012-11-17 13:55:00
9:55 AM,47.7,31.5,53,30.43,10.0,NE,12.7,19.6,N/A,,Scattered Clouds,50,2012-11-17 14:55:00
10:55 AM,49.1,30.0,48,30.43,10.0,Variable,6.9,-,N/A,,Scattered Clouds,0,2012-11-17 15:55:00
11:55 AM,52.0,29.3,42,30.40,10.0,NNE,9.2,-,N/A,,Mostly Cloudy,20,2012-11-17 16:55:00
12:55 PM,54.1,28.9,38,30.38,10.0,North,10.4,-,N/A,,Mostly Cloudy,10,2012-11-17 17:55:00
1:55 PM,57.0,30.0,36,30.36,10.0,NE,9.2,-,N/A,,Mostly Cloudy,40,2012-11-17 18:55:00
2:55 PM,56.7,31.5,38,30.35,10.0,NE,9.2,-,N/A,,Mostly Cloudy,40,2012-11-17 19:55:00
3:55 PM,56.8,33.1,41,30.36,10.0,NNE,8.1,-,N/A,,Mostly Cloudy,20,2012-11-17 20:55:00
4:55 PM,55.2,33.4,44,30.37,10.0,NNE,5.8,-,N/A,,Overcast,30,2012-11-17 21:55:00
5:55 PM,54.1,31.8,43,30.38,10.0,NNE,4.6,-,N/A,,Overcast,30,2012-11-17 22:55:00
6:55 PM,54.1,31.1,41,30.38,10.0,North,10.4,-,N/A,,Overcast,10,2012-11-17 23:55:00
7:55 PM,53.8,30.9,42,30.39,10.0,Variable,6.9,-,N/A,,Overcast,0,2012-11-18 00:55:00
8:55 PM,53.4,30.4,41,30.38,10.0,Variable,3.5,-,N/A,,Overcast,0,2012-11-18 01:55:00
9:55 PM,53.2,32.0,44,30.38,10.0,NE,10.4,19.6,N/A,,Overcast,40,2012-11-18 02:55:00
10:55 PM,52.9,32.9,47,30.39,10.0,NNE,10.4,-,N/A,,Overcast,20,2012-11-18 03:55:00
11:54 PM,51.8,32.0,47,30.39,10.0,NE,8.1,-,N/A,,Overcast,40,2012-11-18 04:54:00
11:55 PM,51.8,32.2,47,30.39,10.0,NNE,8.1,-,N/A,,Overcast,30,2012-11-18 04:55:00